Datetime-UTC, Datetime-J2000, North, East, Up
2023/07/03 00:00:00, 741614400.00, 0.000000, 0.000000, 0.000000
2023/07/03 00:05:00, 741614700.00, -0.000500, -0.002300, -0.014000
2023/07/03 00:10:00, 741615000.00, -0.002300, -0.002700, 0.000200
2023/07/03 00:15:00, 741615300.00, -0.001600, -0.004800, -0.010900
2023/07/03 00:20:00, 741615600.00, -0.001900, -0.001200, -0.003700
2023/07/03 00:25:00, 741615900.00, -0.001700, -0.000600, -0.005700
2023/07/03 00:30:00, 741616200.00, 0.002900, 0.005500, -0.030000
2023/07/03 00:35:00, 741616500.00, -0.008400, -0.012100, -0.000500
2023/07/03 00:40:00, 741616800.00, -0.001700, 0.005700, -0.036700
2023/07/03 00:45:00, 741617100.00, -0.006000, 0.007500, -0.019800
2023/07/03 00:50:00, 741617400.00, -0.001400, 0.009400, -0.066000
2023/07/03 00:55:00, 741617700.00, -0.001300, 0.005700, -0.053300
2023/07/03 01:00:00, 741618000.00, -0.001900, 0.010100, -0.047700
2023/07/03 01:05:00, 741618300.00, 0.008000, 0.004700, -0.004900
2023/07/03 01:10:00, 741618600.00, 0.009300, 0.010500, -0.069200
2023/07/03 01:15:00, 741618900.00, 0.003700, 0.011600, -0.042900
2023/07/03 01:20:00, 741619200.00, 0.000400, 0.015000, -0.032500
2023/07/03 01:25:00, 741619500.00, -0.002300, 0.010400, -0.026800
2023/07/03 01:30:00, 741619800.00, 0.003800, 0.007800, -0.048000
2023/07/03 01:35:00, 741620100.00, -0.002700, 0.003600, -0.021600
2023/07/03 01:40:00, 741620400.00, -0.005700, 0.003100, -0.033600
2023/07/03 01:45:00, 741620700.00, -0.006300, 0.000400, -0.055900
2023/07/03 01:50:00, 741621000.00, -0.005400, -0.003400, -0.020800
2023/07/03 01:55:00, 741621300.00, -0.011700, 0.007300, -0.034100
2023/07/03 02:00:00, 741621600.00, -0.012200, -0.003100, -0.024300
2023/07/03 02:05:00, 741621900.00, -0.021700, 0.000600, -0.016900
2023/07/03 02:10:00, 741622200.00, -0.020600, -0.013900, -0.049200
2023/07/03 02:15:00, 741622500.00, -0.029700, 0.002700, -0.018800
2023/07/03 02:20:00, 741622800.00, -0.012200, -0.007400, -0.014300
2023/07/03 02:25:00, 741623100.00, -0.036100, 0.006000, -0.015300
2023/07/03 02:30:00, 741623400.00, -0.033000, -0.004000, -0.037400
2023/07/03 02:35:00, 741623700.00, -0.035500, 0.003000, -0.023200
2023/07/03 02:40:00, 741624000.00, -0.019200, -0.010600, -0.015100
2023/07/03 02:45:00, 741624300.00, -0.022200, 0.004400, -0.011600
2023/07/03 02:50:00, 741624600.00, -0.021900, -0.007100, -0.007900
2023/07/03 02:55:00, 741624900.00, -0.033200, 0.008200, -0.019300
2023/07/03 03:00:00, 741625200.00, -0.018800, -0.009400, -0.021600
2023/07/03 03:05:00, 741625500.00, -0.020100, -0.002300, -0.004500
2023/07/03 03:10:00, 741625800.00, -0.016000, -0.005000, -0.022900
2023/07/03 03:15:00, 741626100.00, -0.023200, -0.002000, -0.026100
2023/07/03 03:20:00, 741626400.00, -0.019700, -0.002900, -0.025300
2023/07/03 03:25:00, 741626700.00, -0.017700, -0.003800, -0.012300
2023/07/03 03:30:00, 741627000.00, -0.016100, -0.007300, -0.002300
2023/07/03 03:35:00, 741627300.00, -0.015800, -0.000600, -0.014200
2023/07/03 03:40:00, 741627600.00, -0.014900, -0.003400, -0.008500
2023/07/03 03:45:00, 741627900.00, -0.025100, 0.008400, -0.011700
2023/07/03 03:50:00, 741628200.00, -0.022400, 0.003800, -0.006600
2023/07/03 03:55:00, 741628500.00, -0.016000, 0.001300, -0.011100
2023/07/03 04:00:00, 741628800.00, -0.019600, -0.000800, -0.006900
2023/07/03 04:05:00, 741629100.00, -0.024000, -0.000900, 0.012300
2023/07/03 04:10:00, 741629400.00, -0.007300, 0.008500, -0.020600
2023/07/03 04:15:00, 741629700.00, -0.012200, -0.003700, -0.002500
2023/07/03 04:20:00, 741630000.00, -0.002100, -0.002500, -0.031600
2023/07/03 04:25:00, 741630300.00, -0.006900, -0.000800, -0.029100
2023/07/03 04:30:00, 741630600.00, 0.000700, -0.001700, -0.034700
2023/07/03 04:35:00, 741630900.00, -0.009100, 0.002600, -0.035300
2023/07/03 04:40:00, 741631200.00, -0.003400, 0.007500, -0.011400
2023/07/03 04:45:00, 741631500.00, -0.005600, 0.009800, -0.012900
2023/07/03 04:50:00, 741631800.00, -0.004100, 0.006300, 0.007300
2023/07/03 04:55:00, 741632100.00, 0.004100, 0.011700, 0.016400
2023/07/03 05:00:00, 741632400.00, -0.014600, -0.000200, -0.001300
2023/07/03 05:05:00, 741632700.00, -0.010900, 0.008100, 0.014100
2023/07/03 05:10:00, 741633000.00, -0.028700, -0.004900, -0.041100
2023/07/03 05:15:00, 741633300.00, -0.012200, -0.006800, -0.016100
2023/07/03 05:20:00, 741633600.00, -0.009700, -0.003400, -0.031900
2023/07/03 05:25:00, 741633900.00, -0.010700, -0.001000, -0.029900
2023/07/03 05:30:00, 741634200.00, -0.011700, 0.005500, -0.018500
2023/07/03 05:35:00, 741634500.00, -0.006700, -0.003400, -0.021100
2023/07/03 05:40:00, 741634800.00, -0.015600, 0.010100, -0.058500
2023/07/03 05:45:00, 741635100.00, -0.007700, 0.007400, -0.022600
2023/07/03 05:50:00, 741635400.00, -0.014800, 0.006100, -0.044300
2023/07/03 05:55:00, 741635700.00, -0.015000, 0.009600, -0.014300
2023/07/03 06:00:00, 741636000.00, -0.011100, 0.003800, 0.016000
2023/07/03 06:05:00, 741636300.00, -0.013000, 0.015400, -0.043000
2023/07/03 06:10:00, 741636600.00, -0.024400, -0.002300, -0.015600
2023/07/03 06:15:00, 741636900.00, -0.022300, -0.009200, 0.017700
2023/07/03 06:20:00, 741637200.00, -0.015300, -0.004400, 0.008200
2023/07/03 06:25:00, 741637500.00, -0.018900, -0.002900, 0.010900
2023/07/03 06:30:00, 741637800.00, -0.010800, 0.000400, -0.023200
2023/07/03 06:35:00, 741638100.00, -0.016400, -0.011100, 0.001500
2023/07/03 06:40:00, 741638400.00, -0.006500, -0.004400, -0.009000
2023/07/03 06:45:00, 741638700.00, -0.005800, -0.001900, -0.036200
2023/07/03 06:50:00, 741639000.00, -0.007400, 0.000300, -0.002300
2023/07/03 06:55:00, 741639300.00, 0.006400, -0.001400, -0.046200
2023/07/03 07:00:00, 741639600.00, -0.008900, 0.003800, -0.015200
2023/07/03 07:05:00, 741639900.00, -0.013600, -0.002200, -0.021400
2023/07/03 07:10:00, 741640200.00, 0.006500, 0.003000, -0.002700
2023/07/03 07:15:00, 741640500.00, 0.003500, -0.002300, -0.038400
2023/07/03 07:20:00, 741640800.00, -0.015000, -0.002800, -0.019300
2023/07/03 07:25:00, 741641100.00, 0.009700, -0.004300, -0.010300
2023/07/03 07:30:00, 741641400.00, 0.001300, -0.003400, -0.020600
2023/07/03 07:35:00, 741641700.00, -0.005900, -0.004400, 0.002800
2023/07/03 07:40:00, 741642000.00, 0.001300, 0.003000, -0.001600
2023/07/03 07:45:00, 741642300.00, -0.010500, -0.005600, 0.003600
2023/07/03 07:50:00, 741642600.00, -0.001100, 0.001400, -0.009500
2023/07/03 07:55:00, 741642900.00, 0.001400, -0.000600, -0.000100
2023/07/03 08:00:00, 741643200.00, -0.006700, -0.006900, -0.001200
2023/07/03 08:05:00, 741643500.00, 0.003900, -0.000300, 0.003600
2023/07/03 08:10:00, 741643800.00, 0.006200, -0.001600, -0.031100
2023/07/03 08:15:00, 741644100.00, 0.008500, -0.000800, -0.003800
2023/07/03 08:20:00, 741644400.00, 0.013300, 0.000100, -0.007500
2023/07/03 08:25:00, 741644700.00, 0.004300, -0.004100, 0.016400
2023/07/03 08:30:00, 741645000.00, 0.002500, 0.002800, 0.007900
2023/07/03 08:35:00, 741645300.00, 0.003700, 0.002400, -0.004900
2023/07/03 08:40:00, 741645600.00, -0.006100, 0.002300, 0.015900
2023/07/03 08:45:00, 741645900.00, 0.007900, 0.011800, -0.015300
2023/07/03 08:50:00, 741646200.00, 0.004300, 0.002500, 0.007500
2023/07/03 08:55:00, 741646500.00, 0.008000, 0.006800, -0.010200
2023/07/03 09:00:00, 741646800.00, -0.004900, 0.007400, -0.014500
2023/07/03 09:05:00, 741647100.00, -0.006500, 0.008300, -0.013500
2023/07/03 09:10:00, 741647400.00, -0.012300, 0.006600, 0.011200
2023/07/03 09:15:00, 741647700.00, -0.014400, 0.006300, 0.010800
2023/07/03 09:20:00, 741648000.00, -0.010700, 0.010400, -0.030600
2023/07/03 09:25:00, 741648300.00, -0.006000, 0.009100, -0.026700
2023/07/03 09:30:00, 741648600.00, -0.012300, 0.015700, -0.043600
2023/07/03 09:35:00, 741648900.00, -0.002600, 0.022500, -0.022200
2023/07/03 09:40:00, 741649200.00, -0.005900, 0.016700, -0.029300
2023/07/03 09:45:00, 741649500.00, -0.025100, 0.026700, -0.007500
2023/07/03 09:50:00, 741649800.00, -0.008300, 0.019500, -0.026000
2023/07/03 09:55:00, 741650100.00, -0.008000, 0.005000, -0.012100
2023/07/03 10:00:00, 741650400.00, -0.014400, 0.021800, -0.046600
2023/07/03 10:05:00, 741650700.00, -0.015200, -0.001300, -0.000600
2023/07/03 10:10:00, 741651000.00, -0.015500, 0.005200, -0.013600
2023/07/03 10:15:00, 741651300.00, -0.021600, -0.004900, 0.025300
2023/07/03 10:20:00, 741651600.00, -0.014600, 0.006200, -0.003100
2023/07/03 10:25:00, 741651900.00, -0.012200, 0.007300, -0.001300
2023/07/03 10:30:00, 741652200.00, -0.024500, 0.009400, 0.009500
2023/07/03 10:35:00, 741652500.00, -0.016500, -0.000500, 0.003300
2023/07/03 10:40:00, 741652800.00, -0.017200, 0.008400, 0.010700
2023/07/03 10:45:00, 741653100.00, -0.022100, 0.002700, -0.031700
2023/07/03 10:50:00, 741653400.00, -0.021400, 0.004500, -0.008100
2023/07/03 10:55:00, 741653700.00, -0.017300, -0.000400, -0.005100
2023/07/03 11:00:00, 741654000.00, -0.014000, -0.001700, -0.030200
2023/07/03 11:05:00, 741654300.00, -0.022000, 0.008600, -0.009800
2023/07/03 11:10:00, 741654600.00, -0.016800, 0.009000, -0.014200
2023/07/03 11:15:00, 741654900.00, -0.019600, -0.004500, -0.017000
2023/07/03 11:20:00, 741655200.00, 0.002300, -0.001200, -0.005300
2023/07/03 11:25:00, 741655500.00, -0.001800, 0.001500, 0.001800
2023/07/03 11:30:00, 741655800.00, -0.012100, 0.002500, -0.006800
2023/07/03 11:35:00, 741656100.00, -0.011400, 0.003300, -0.011500
2023/07/03 11:40:00, 741656400.00, -0.027600, 0.014300, -0.013700
2023/07/03 11:45:00, 741656700.00, -0.012800, 0.006900, 0.000200
2023/07/03 11:50:00, 741657000.00, -0.004200, 0.005000, -0.012900
2023/07/03 11:55:00, 741657300.00, -0.012200, 0.000000, -0.024300
2023/07/03 12:00:00, 741657600.00, -0.015600, 0.003500, -0.008900
2023/07/03 12:05:00, 741657900.00, -0.015600, 0.006600, -0.011100
2023/07/03 12:10:00, 741658200.00, -0.010900, 0.011600, -0.039900
2023/07/03 12:15:00, 741658500.00, -0.013200, 0.007700, -0.015900
2023/07/03 12:20:00, 741658800.00, -0.003600, 0.000200, -0.024200
2023/07/03 12:25:00, 741659100.00, -0.011400, 0.012800, -0.038000
2023/07/03 12:30:00, 741659400.00, -0.019200, 0.013200, -0.021200
2023/07/03 12:35:00, 741659700.00, -0.011100, 0.015600, -0.028200
2023/07/03 12:40:00, 741660000.00, -0.014500, 0.006700, -0.016700
2023/07/03 12:45:00, 741660300.00, -0.005800, 0.005100, -0.034200
2023/07/03 12:50:00, 741660600.00, -0.009300, 0.006600, -0.006400
2023/07/03 12:55:00, 741660900.00, -0.004900, 0.017700, -0.030700
2023/07/03 13:00:00, 741661200.00, -0.011100, 0.012400, -0.004500
2023/07/03 13:05:00, 741661500.00, -0.000800, 0.010900, -0.020400
2023/07/03 13:10:00, 741661800.00, -0.011900, 0.010000, -0.015300
2023/07/03 13:15:00, 741662100.00, -0.021400, 0.012900, -0.025200
2023/07/03 13:20:00, 741662400.00, -0.015900, 0.002100, -0.005800
2023/07/03 13:25:00, 741662700.00, -0.000500, 0.007600, -0.037100
2023/07/03 13:30:00, 741663000.00, -0.012900, 0.000500, -0.006500
2023/07/03 13:35:00, 741663300.00, 0.001000, 0.010600, -0.038200
2023/07/03 13:40:00, 741663600.00, -0.004700, 0.006000, -0.002100
2023/07/03 13:45:00, 741663900.00, 0.000000, 0.007200, -0.009900
2023/07/03 13:50:00, 741664200.00, -0.004800, 0.008100, -0.005500
2023/07/03 13:55:00, 741664500.00, 0.000800, 0.000000, 0.010000
2023/07/03 14:00:00, 741664800.00, -0.002300, 0.003900, 0.000700
2023/07/03 14:05:00, 741665100.00, 0.000900, 0.006100, -0.006900
2023/07/03 14:10:00, 741665400.00, -0.000400, -0.001200, -0.026200
2023/07/03 14:15:00, 741665700.00, -0.005200, 0.006000, 0.005200
2023/07/03 14:20:00, 741666000.00, -0.013400, 0.000900, -0.022900
2023/07/03 14:25:00, 741666300.00, -0.002400, 0.008200, -0.019400
2023/07/03 14:30:00, 741666600.00, -0.017400, 0.009100, -0.025600
2023/07/03 14:35:00, 741666900.00, -0.010300, 0.008800, -0.028000
2023/07/03 14:40:00, 741667200.00, -0.008500, 0.007000, -0.014800
2023/07/03 14:45:00, 741667500.00, -0.015400, -0.000200, -0.023600
2023/07/03 14:50:00, 741667800.00, -0.013000, 0.003000, -0.028100
2023/07/03 14:55:00, 741668100.00, -0.014100, 0.008000, -0.024400
2023/07/03 15:00:00, 741668400.00, -0.013000, 0.004400, -0.012400
2023/07/03 15:05:00, 741668700.00, -0.005500, -0.000100, -0.017100
2023/07/03 15:10:00, 741669000.00, -0.004400, -0.003300, -0.028900
2023/07/03 15:15:00, 741669300.00, -0.008300, -0.009100, 0.008700
2023/07/03 15:20:00, 741669600.00, -0.012200, -0.001100, -0.018800
2023/07/03 15:25:00, 741669900.00, -0.016800, -0.002800, -0.016700
2023/07/03 15:30:00, 741670200.00, -0.014200, 0.001100, -0.009400
2023/07/03 15:35:00, 741670500.00, -0.004800, -0.003700, -0.001900
2023/07/03 15:40:00, 741670800.00, -0.017600, -0.003100, -0.001500
2023/07/03 15:45:00, 741671100.00, -0.007300, 0.002600, -0.014400
2023/07/03 15:50:00, 741671400.00, -0.012300, 0.000400, -0.006800
2023/07/03 15:55:00, 741671700.00, -0.015100, 0.007800, 0.006700
2023/07/03 16:00:00, 741672000.00, -0.012100, 0.003000, -0.008400
2023/07/03 16:05:00, 741672300.00, -0.013600, 0.001600, 0.011800
2023/07/03 16:10:00, 741672600.00, -0.022300, 0.003400, 0.000900
2023/07/03 16:15:00, 741672900.00, -0.005200, 0.002900, -0.006800
2023/07/03 16:20:00, 741673200.00, -0.022100, -0.001700, -0.013100
2023/07/03 16:25:00, 741673500.00, 0.001800, 0.005400, -0.012700
2023/07/03 16:30:00, 741673800.00, -0.013900, 0.002800, -0.019100
2023/07/03 16:35:00, 741674100.00, 0.012500, 0.019300, -0.013300
2023/07/03 16:40:00, 741674400.00, -0.010500, 0.008400, -0.024200
2023/07/03 16:45:00, 741674700.00, -0.022800, 0.010100, -0.015300
2023/07/03 16:50:00, 741675000.00, -0.002700, 0.008100, -0.018800
2023/07/03 16:55:00, 741675300.00, -0.003600, 0.005000, -0.021200
2023/07/03 17:00:00, 741675600.00, -0.013800, -0.001900, -0.046600
2023/07/03 17:05:00, 741675900.00, -0.017000, -0.002400, -0.027700
2023/07/03 17:10:00, 741676200.00, -0.014500, 0.001100, -0.032400
2023/07/03 17:15:00, 741676500.00, -0.015700, -0.001800, -0.033000
2023/07/03 17:20:00, 741676800.00, -0.018300, 0.006600, -0.036700
2023/07/03 17:25:00, 741677100.00, -0.019000, 0.004000, -0.036500
2023/07/03 17:30:00, 741677400.00, -0.012400, -0.002300, -0.003200
2023/07/03 17:35:00, 741677700.00, -0.003700, 0.003700, 0.009300
2023/07/03 17:40:00, 741678000.00, -0.015200, -0.000700, -0.025800
2023/07/03 17:45:00, 741678300.00, -0.012200, -0.001200, -0.028900
2023/07/03 17:50:00, 741678600.00, -0.009600, 0.000700, -0.020800
2023/07/03 17:55:00, 741678900.00, -0.017000, -0.007000, -0.009000
2023/07/03 18:00:00, 741679200.00, -0.023300, -0.000700, -0.037400
2023/07/03 18:05:00, 741679500.00, -0.011400, -0.008300, -0.014100
2023/07/03 18:10:00, 741679800.00, -0.006500, -0.003900, -0.036200
2023/07/03 18:15:00, 741680100.00, -0.006600, -0.009200, -0.028600
2023/07/03 18:20:00, 741680400.00, -0.018200, -0.002000, -0.013300
2023/07/03 18:25:00, 741680700.00, -0.017300, -0.003700, -0.040900
2023/07/03 18:30:00, 741681000.00, -0.007900, -0.002800, -0.030900
2023/07/03 18:35:00, 741681300.00, -0.011600, 0.004100, -0.028200
2023/07/03 18:40:00, 741681600.00, -0.017700, 0.005800, -0.020500
2023/07/03 18:45:00, 741681900.00, -0.008900, 0.001200, -0.012800
2023/07/03 18:50:00, 741682200.00, -0.010900, -0.006000, -0.017000
2023/07/03 18:55:00, 741682500.00, -0.013700, 0.004600, -0.013500
2023/07/03 19:00:00, 741682800.00, -0.017000, -0.002300, -0.024200
2023/07/03 19:05:00, 741683100.00, -0.000100, -0.007700, -0.021600
2023/07/03 19:10:00, 741683400.00, -0.010500, 0.003500, 0.006900
2023/07/03 19:15:00, 741683700.00, -0.015000, -0.000800, 0.005700
2023/07/03 19:20:00, 741684000.00, -0.003400, 0.000200, -0.006100
2023/07/03 19:25:00, 741684300.00, -0.002700, -0.001300, -0.026000
2023/07/03 19:30:00, 741684600.00, -0.002500, 0.001300, -0.036600
2023/07/03 19:35:00, 741684900.00, -0.009500, -0.006100, -0.009000
2023/07/03 19:40:00, 741685200.00, -0.008600, -0.010800, -0.019300
2023/07/03 19:45:00, 741685500.00, -0.011500, -0.006700, -0.018300
2023/07/03 19:50:00, 741685800.00, 0.005100, -0.005700, 0.005700
2023/07/03 19:55:00, 741686100.00, 0.002000, -0.013400, 0.009600
2023/07/03 20:00:00, 741686400.00, -0.014000, -0.002500, -0.011800
2023/07/03 20:05:00, 741686700.00, -0.017200, -0.008100, 0.000000
2023/07/03 20:10:00, 741687000.00, 0.004300, -0.012900, -0.012400
2023/07/03 20:15:00, 741687300.00, 0.000000, -0.011500, -0.015400
2023/07/03 20:20:00, 741687600.00, 0.005600, -0.018800, 0.001800
2023/07/03 20:25:00, 741687900.00, 0.004500, -0.014200, -0.003700
2023/07/03 20:30:00, 741688200.00, 0.004400, -0.012900, 0.034300
2023/07/03 20:35:00, 741688500.00, -0.004500, -0.013900, 0.050100
2023/07/03 20:40:00, 741688800.00, 0.016300, -0.008100, 0.012300
2023/07/03 20:45:00, 741689100.00, 0.000700, -0.013700, 0.030600
2023/07/03 20:50:00, 741689400.00, 0.004900, -0.016800, 0.040200
2023/07/03 20:55:00, 741689700.00, 0.016600, -0.007000, 0.012800
2023/07/03 21:00:00, 741690000.00, -0.005900, -0.009600, 0.015000
2023/07/03 21:05:00, 741690300.00, -0.005700, -0.005300, 0.023100
2023/07/03 21:10:00, 741690600.00, -0.007000, -0.005100, 0.000000
2023/07/03 21:15:00, 741690900.00, 0.001600, -0.009100, 0.004800
2023/07/03 21:20:00, 741691200.00, -0.011200, -0.002500, 0.023400
2023/07/03 21:25:00, 741691500.00, -0.007400, -0.007100, 0.021300
2023/07/03 21:30:00, 741691800.00, -0.011400, -0.000100, 0.014300
2023/07/03 21:35:00, 741692100.00, -0.007800, 0.006300, 0.032900
2023/07/03 21:40:00, 741692400.00, -0.004200, 0.018600, 0.024000
2023/07/03 21:45:00, 741692700.00, -0.015900, 0.030900, 0.000700
2023/07/03 21:50:00, 741693000.00, 0.006700, 0.029300, 0.001400
2023/07/03 21:55:00, 741693300.00, -0.012600, 0.020200, 0.010100
2023/07/03 22:00:00, 741693600.00, -0.023100, 0.024800, 0.027200
2023/07/03 22:05:00, 741693900.00, -0.006200, 0.020500, -0.019500
2023/07/03 22:10:00, 741694200.00, -0.006200, 0.017100, 0.027400
2023/07/03 22:15:00, 741694500.00, -0.010600, 0.024300, 0.009100
2023/07/03 22:20:00, 741694800.00, -0.002300, 0.005400, -0.001400
2023/07/03 22:25:00, 741695100.00, -0.006600, 0.017300, -0.005100
2023/07/03 22:30:00, 741695400.00, -0.001200, 0.006800, 0.003300
2023/07/03 22:35:00, 741695700.00, -0.003100, -0.000600, 0.017500
2023/07/03 22:40:00, 741696000.00, -0.006200, 0.001800, -0.019700
2023/07/03 22:45:00, 741696300.00, -0.004900, 0.008500, 0.002600
2023/07/03 22:50:00, 741696600.00, -0.014900, 0.003600, 0.004900
2023/07/03 22:55:00, 741696900.00, -0.011700, 0.019800, 0.000800
2023/07/03 23:00:00, 741697200.00, -0.020500, 0.009900, -0.022000
2023/07/03 23:05:00, 741697500.00, -0.013200, 0.009000, -0.038800
2023/07/03 23:10:00, 741697800.00, -0.012700, 0.006100, 0.000900
2023/07/03 23:15:00, 741698100.00, -0.017600, 0.016800, 0.015000
2023/07/03 23:20:00, 741698400.00, -0.017500, 0.015700, 0.018500
2023/07/03 23:25:00, 741698700.00, -0.024500, 0.006300, -0.021300
2023/07/03 23:30:00, 741699000.00, -0.012000, 0.020900, -0.002000
2023/07/03 23:35:00, 741699300.00, -0.026400, 0.011900, -0.001300
2023/07/03 23:40:00, 741699600.00, -0.033600, 0.011700, -0.010200
2023/07/03 23:45:00, 741699900.00, -0.030000, 0.014800, -0.008500
2023/07/03 23:50:00, 741700200.00, -0.027100, 0.016700, 0.000300
2023/07/03 23:55:00, 741700500.00, -0.029300, 0.007200, -0.002600
